Year,Month,Day,Hour,Minute,Value (Times are PST for temperature in C)
2022,10,03,00,00,13.70
2022,10,03,00,01,13.80
2022,10,03,00,02,13.80
2022,10,03,00,03,13.70
2022,10,03,00,04,13.70
2022,10,03,00,05,13.70
2022,10,03,00,06,13.70
2022,10,03,00,07,13.70
2022,10,03,00,08,13.70
2022,10,03,00,09,13.70
2022,10,03,00,10,13.60
2022,10,03,00,11,13.60
2022,10,03,00,12,13.60
2022,10,03,00,13,13.60
2022,10,03,00,14,13.60
2022,10,03,00,15,13.60
2022,10,03,00,16,13.60
2022,10,03,00,17,13.60
2022,10,03,00,18,13.60
2022,10,03,00,19,13.60
2022,10,03,00,20,13.60
2022,10,03,00,21,13.60
2022,10,03,00,22,13.60
2022,10,03,00,23,13.60
2022,10,03,00,24,13.60
2022,10,03,00,25,13.60
2022,10,03,00,26,13.50
2022,10,03,00,27,13.50
2022,10,03,00,28,13.50
2022,10,03,00,29,13.50
2022,10,03,00,30,13.50
2022,10,03,00,31,13.50
2022,10,03,00,32,13.50
2022,10,03,00,33,13.50
2022,10,03,00,34,13.40
2022,10,03,00,35,13.50
2022,10,03,00,36,13.40
2022,10,03,00,37,13.40
2022,10,03,00,38,13.40
2022,10,03,00,39,13.40
2022,10,03,00,40,13.40
2022,10,03,00,41,13.40
2022,10,03,00,42,13.40
2022,10,03,00,43,13.40
2022,10,03,00,44,13.40
2022,10,03,00,45,13.40
2022,10,03,00,46,13.30
2022,10,03,00,47,13.30
2022,10,03,00,48,13.30
2022,10,03,00,49,13.30
2022,10,03,00,50,13.30
2022,10,03,00,51,13.30
2022,10,03,00,52,13.30
2022,10,03,00,53,13.30
2022,10,03,00,54,13.30
2022,10,03,00,55,13.30
2022,10,03,00,56,13.30
2022,10,03,00,57,13.30
2022,10,03,00,58,13.20
2022,10,03,00,59,13.20
2022,10,03,01,00,13.20
2022,10,03,01,01,13.20
2022,10,03,01,02,13.20
2022,10,03,01,03,13.20
2022,10,03,01,04,13.20
2022,10,03,01,05,13.20
2022,10,03,01,06,13.20
2022,10,03,01,07,13.20
2022,10,03,01,08,13.20
2022,10,03,01,09,13.20
2022,10,03,01,10,13.20
2022,10,03,01,11,13.20
2022,10,03,01,12,13.20
2022,10,03,01,13,13.20
2022,10,03,01,14,13.10
2022,10,03,01,15,13.10
2022,10,03,01,16,13.10
2022,10,03,01,17,13.10
2022,10,03,01,18,13.10
2022,10,03,01,19,13.10
2022,10,03,01,20,13.10
2022,10,03,01,21,13.10
2022,10,03,01,22,13.10
2022,10,03,01,23,13.10
2022,10,03,01,24,13.10
2022,10,03,01,25,13.10
2022,10,03,01,26,13.10
2022,10,03,01,27,13.10
2022,10,03,01,28,13.10
2022,10,03,01,29,13.00
2022,10,03,01,30,13.00
2022,10,03,01,31,13.00
2022,10,03,01,32,13.00
2022,10,03,01,33,13.00
2022,10,03,01,34,13.00
2022,10,03,01,35,13.00
2022,10,03,01,36,13.00
2022,10,03,01,37,13.00
2022,10,03,01,38,13.00
2022,10,03,01,39,13.00
2022,10,03,01,40,12.90
2022,10,03,01,41,12.90
2022,10,03,01,42,12.90
2022,10,03,01,43,12.90
2022,10,03,01,44,12.90
2022,10,03,01,45,12.90
2022,10,03,01,46,13.00
2022,10,03,01,47,13.00
2022,10,03,01,48,13.00
2022,10,03,01,49,13.00
2022,10,03,01,50,13.00
2022,10,03,01,51,13.00
2022,10,03,01,52,13.00
2022,10,03,01,53,12.90
2022,10,03,01,54,12.90
2022,10,03,01,55,12.90
2022,10,03,01,56,12.90
2022,10,03,01,57,12.90
2022,10,03,01,58,12.90
2022,10,03,01,59,12.90
2022,10,03,02,00,12.90
2022,10,03,02,01,12.90
2022,10,03,02,02,12.80
2022,10,03,02,03,12.80
2022,10,03,02,04,12.80
2022,10,03,02,05,12.80
2022,10,03,02,06,12.80
2022,10,03,02,07,12.80
2022,10,03,02,08,12.80
2022,10,03,02,09,12.80
2022,10,03,02,10,12.80
2022,10,03,02,11,12.80
2022,10,03,02,12,12.80
2022,10,03,02,13,12.80
2022,10,03,02,14,12.80
2022,10,03,02,15,12.80
2022,10,03,02,16,12.80
2022,10,03,02,17,12.80
2022,10,03,02,18,12.80
2022,10,03,02,19,12.80
2022,10,03,02,20,12.80
2022,10,03,02,21,12.80
2022,10,03,02,22,12.80
2022,10,03,02,23,12.80
2022,10,03,02,24,12.80
2022,10,03,02,25,12.80
2022,10,03,02,26,12.70
2022,10,03,02,27,12.70
2022,10,03,02,28,12.70
2022,10,03,02,29,12.70
2022,10,03,02,30,12.70
2022,10,03,02,31,12.70
2022,10,03,02,32,12.70
2022,10,03,02,33,12.70
2022,10,03,02,34,12.70
2022,10,03,02,35,12.70
2022,10,03,02,36,12.70
2022,10,03,02,37,12.70
2022,10,03,02,38,12.70
2022,10,03,02,39,12.70
2022,10,03,02,40,12.70
2022,10,03,02,41,12.70
2022,10,03,02,42,12.70
2022,10,03,02,43,12.60
2022,10,03,02,44,12.60
2022,10,03,02,45,12.60
2022,10,03,02,46,12.60
2022,10,03,02,47,12.60
2022,10,03,02,48,12.60
2022,10,03,02,49,12.60
2022,10,03,02,50,12.60
2022,10,03,02,51,12.50
2022,10,03,02,52,12.50
2022,10,03,02,53,12.50
2022,10,03,02,54,12.50
2022,10,03,02,55,12.50
2022,10,03,02,56,12.40
2022,10,03,02,57,12.40
2022,10,03,02,58,12.40
2022,10,03,02,59,12.40
2022,10,03,03,00,12.40
2022,10,03,03,01,12.40
2022,10,03,03,02,12.40
2022,10,03,03,03,12.40
2022,10,03,03,04,12.30
2022,10,03,03,05,12.30
2022,10,03,03,06,12.30
2022,10,03,03,07,12.30
2022,10,03,03,08,12.30
2022,10,03,03,09,12.30
2022,10,03,03,10,12.30
2022,10,03,03,11,12.30
2022,10,03,03,12,12.40
2022,10,03,03,13,12.40
2022,10,03,03,14,12.40
2022,10,03,03,15,12.40
2022,10,03,03,16,12.30
2022,10,03,03,17,12.30
2022,10,03,03,18,12.30
2022,10,03,03,19,12.30
2022,10,03,03,20,12.30
2022,10,03,03,21,12.30
2022,10,03,03,22,12.30
2022,10,03,03,23,12.30
2022,10,03,03,24,12.20
2022,10,03,03,25,12.30
2022,10,03,03,26,12.30
2022,10,03,03,27,12.30
2022,10,03,03,28,12.30
2022,10,03,03,29,12.30
2022,10,03,03,30,12.30
2022,10,03,03,31,12.30
2022,10,03,03,32,12.30
2022,10,03,03,33,12.30
2022,10,03,03,34,12.30
2022,10,03,03,35,12.30
2022,10,03,03,36,12.30
2022,10,03,03,37,12.30
2022,10,03,03,38,12.30
2022,10,03,03,39,12.30
2022,10,03,03,40,12.30
2022,10,03,03,41,12.20
2022,10,03,03,42,12.20
2022,10,03,03,43,12.20
2022,10,03,03,44,12.20
2022,10,03,03,45,12.20
2022,10,03,03,46,12.20
2022,10,03,03,47,12.20
2022,10,03,03,48,12.20
2022,10,03,03,49,12.20
2022,10,03,03,50,12.20
2022,10,03,03,51,12.20
2022,10,03,03,52,12.20
2022,10,03,03,53,12.20
2022,10,03,03,54,12.20
2022,10,03,03,55,12.10
2022,10,03,03,56,12.10
2022,10,03,03,57,12.10
2022,10,03,03,58,12.10
2022,10,03,03,59,12.10
2022,10,03,04,00,12.20
2022,10,03,04,01,12.20
2022,10,03,04,02,12.20
2022,10,03,04,03,12.20
2022,10,03,04,04,12.20
2022,10,03,04,05,12.10
2022,10,03,04,06,12.10
2022,10,03,04,07,12.10
2022,10,03,04,08,12.10
2022,10,03,04,09,12.10
2022,10,03,04,10,12.00
2022,10,03,04,11,12.00
2022,10,03,04,12,12.00
2022,10,03,04,13,12.00
2022,10,03,04,14,12.00
2022,10,03,04,15,12.00
2022,10,03,04,16,12.10
2022,10,03,04,17,12.00
2022,10,03,04,18,12.00
2022,10,03,04,19,12.00
2022,10,03,04,20,12.00
2022,10,03,04,21,12.00
2022,10,03,04,22,12.00
2022,10,03,04,23,12.00
2022,10,03,04,24,12.00
2022,10,03,04,25,11.90
2022,10,03,04,26,11.90
2022,10,03,04,27,11.90
2022,10,03,04,28,11.90
2022,10,03,04,29,11.90
2022,10,03,04,30,11.90
2022,10,03,04,31,11.90
2022,10,03,04,32,11.90
2022,10,03,04,33,11.90
2022,10,03,04,34,11.90
2022,10,03,04,35,11.90
2022,10,03,04,36,11.90
2022,10,03,04,37,11.90
2022,10,03,04,38,11.90
2022,10,03,04,39,11.90
2022,10,03,04,40,11.90
2022,10,03,04,41,11.90
2022,10,03,04,42,11.90
2022,10,03,04,43,11.90
2022,10,03,04,44,11.90
2022,10,03,04,45,11.90
2022,10,03,04,46,11.90
2022,10,03,04,47,11.90
2022,10,03,04,48,11.90
2022,10,03,04,49,11.80
2022,10,03,04,50,11.80
2022,10,03,04,51,11.80
2022,10,03,04,52,11.80
2022,10,03,04,53,11.80
2022,10,03,04,54,11.80
2022,10,03,04,55,11.80
2022,10,03,04,56,11.80
2022,10,03,04,57,11.80
2022,10,03,04,58,11.80
2022,10,03,04,59,11.80
2022,10,03,05,00,11.80
2022,10,03,05,01,11.80
2022,10,03,05,02,11.80
2022,10,03,05,03,11.80
2022,10,03,05,04,11.80
2022,10,03,05,05,11.80
2022,10,03,05,06,11.80
2022,10,03,05,07,11.80
2022,10,03,05,08,11.80
2022,10,03,05,09,11.80
2022,10,03,05,10,11.80
2022,10,03,05,11,11.80
2022,10,03,05,12,11.80
2022,10,03,05,13,11.80
2022,10,03,05,14,11.80
2022,10,03,05,15,11.80
2022,10,03,05,16,11.80
2022,10,03,05,17,11.80
2022,10,03,05,18,11.80
2022,10,03,05,19,11.80
2022,10,03,05,20,11.80
2022,10,03,05,21,11.80
2022,10,03,05,22,11.70
2022,10,03,05,23,11.70
2022,10,03,05,24,11.70
2022,10,03,05,25,11.70
2022,10,03,05,26,11.70
2022,10,03,05,27,11.70
2022,10,03,05,28,11.70
2022,10,03,05,29,11.70
2022,10,03,05,30,11.70
2022,10,03,05,31,11.70
2022,10,03,05,32,11.80
2022,10,03,05,33,11.80
2022,10,03,05,34,11.80
2022,10,03,05,35,11.80
2022,10,03,05,36,11.80
2022,10,03,05,37,11.80
2022,10,03,05,38,11.80
2022,10,03,05,39,11.70
2022,10,03,05,40,11.70
2022,10,03,05,41,11.70
2022,10,03,05,42,11.70
2022,10,03,05,43,11.70
2022,10,03,05,44,11.70
2022,10,03,05,45,11.70
2022,10,03,05,46,11.60
2022,10,03,05,47,11.60
2022,10,03,05,48,11.60
2022,10,03,05,49,11.60
2022,10,03,05,50,11.60
2022,10,03,05,51,11.60
2022,10,03,05,52,11.70
2022,10,03,05,53,11.70
2022,10,03,05,54,11.70
2022,10,03,05,55,11.70
2022,10,03,05,56,11.70
2022,10,03,05,57,11.70
2022,10,03,05,58,11.70
2022,10,03,05,59,11.60
2022,10,03,06,00,11.70
2022,10,03,06,01,11.60
2022,10,03,06,02,11.70
2022,10,03,06,03,11.60
2022,10,03,06,04,11.60
2022,10,03,06,05,11.60
2022,10,03,06,06,11.60
2022,10,03,06,07,11.60
2022,10,03,06,08,11.60
2022,10,03,06,09,11.60
2022,10,03,06,10,11.60
2022,10,03,06,11,11.60
2022,10,03,06,12,11.60
2022,10,03,06,13,11.60
2022,10,03,06,14,11.60
2022,10,03,06,15,11.60
2022,10,03,06,16,11.60
2022,10,03,06,17,11.60
2022,10,03,06,18,11.60
2022,10,03,06,19,11.60
2022,10,03,06,20,11.60
2022,10,03,06,21,11.50
2022,10,03,06,22,11.50
2022,10,03,06,23,11.40
2022,10,03,06,24,11.50
2022,10,03,06,25,11.50
2022,10,03,06,26,11.50
2022,10,03,06,27,11.50
2022,10,03,06,28,11.50
2022,10,03,06,29,11.50
2022,10,03,06,30,11.50
2022,10,03,06,31,11.50
2022,10,03,06,32,11.40
2022,10,03,06,33,11.50
2022,10,03,06,34,11.50
2022,10,03,06,35,11.50
2022,10,03,06,36,11.40
2022,10,03,06,37,11.50
2022,10,03,06,38,11.50
2022,10,03,06,39,11.50
2022,10,03,06,40,11.40
2022,10,03,06,41,11.40
2022,10,03,06,42,11.40
2022,10,03,06,43,11.40
2022,10,03,06,44,11.40
2022,10,03,06,45,11.40
2022,10,03,06,46,11.40
2022,10,03,06,47,11.40
2022,10,03,06,48,11.40
2022,10,03,06,49,11.40
2022,10,03,06,50,11.30
2022,10,03,06,51,11.30
2022,10,03,06,52,11.30
2022,10,03,06,53,11.30
2022,10,03,06,54,11.30
2022,10,03,06,55,11.30
2022,10,03,06,56,11.30
2022,10,03,06,57,11.30
2022,10,03,06,58,11.30
2022,10,03,06,59,11.30
2022,10,03,07,00,11.30
2022,10,03,07,01,11.30
2022,10,03,07,02,11.30
2022,10,03,07,03,11.30
2022,10,03,07,04,11.30
2022,10,03,07,05,11.30
2022,10,03,07,06,11.30
2022,10,03,07,07,11.30
2022,10,03,07,08,11.30
2022,10,03,07,09,11.30
2022,10,03,07,10,11.30
2022,10,03,07,11,11.30
2022,10,03,07,12,11.30
2022,10,03,07,13,11.30
2022,10,03,07,14,11.30
2022,10,03,07,15,11.30
2022,10,03,07,16,11.30
2022,10,03,07,17,11.30
2022,10,03,07,18,11.30
2022,10,03,07,19,11.30
2022,10,03,07,20,11.20
2022,10,03,07,21,11.20
2022,10,03,07,22,11.20
2022,10,03,07,23,11.20
2022,10,03,07,24,11.20
2022,10,03,07,25,11.20
2022,10,03,07,26,11.20
2022,10,03,07,27,11.20
2022,10,03,07,28,11.20
2022,10,03,07,29,11.20
2022,10,03,07,30,11.20
2022,10,03,07,31,11.20
2022,10,03,07,32,11.20
2022,10,03,07,33,11.20
2022,10,03,07,34,11.20
2022,10,03,07,35,11.20
2022,10,03,07,36,11.20
2022,10,03,07,37,11.20
2022,10,03,07,38,11.20
2022,10,03,07,39,11.20
2022,10,03,07,40,11.20
2022,10,03,07,41,11.20
2022,10,03,07,42,11.20
2022,10,03,07,43,11.20
2022,10,03,07,44,11.20
2022,10,03,07,45,11.20
2022,10,03,07,46,11.20
2022,10,03,07,47,11.20
2022,10,03,07,48,11.20
2022,10,03,07,49,11.20
2022,10,03,07,50,11.20
2022,10,03,07,51,11.20
2022,10,03,07,52,11.20
2022,10,03,07,53,11.20
2022,10,03,07,54,11.20
2022,10,03,07,55,11.20
2022,10,03,07,56,11.20
2022,10,03,07,57,11.20
2022,10,03,07,58,11.20
2022,10,03,07,59,11.20
2022,10,03,08,00,11.20
2022,10,03,08,01,11.20
2022,10,03,08,02,11.20
2022,10,03,08,03,11.20
2022,10,03,08,04,11.20
2022,10,03,08,05,11.20
2022,10,03,08,06,11.20
2022,10,03,08,07,11.30
2022,10,03,08,08,11.30
2022,10,03,08,09,11.30
2022,10,03,08,10,11.30
2022,10,03,08,11,11.30
2022,10,03,08,12,11.30
2022,10,03,08,13,11.30
2022,10,03,08,14,11.30
2022,10,03,08,15,11.30
2022,10,03,08,16,11.30
2022,10,03,08,17,11.30
2022,10,03,08,18,11.30
2022,10,03,08,19,11.30
2022,10,03,08,20,11.40
2022,10,03,08,21,11.40
2022,10,03,08,22,11.40
2022,10,03,08,23,11.40
2022,10,03,08,24,11.40
2022,10,03,08,25,11.40
2022,10,03,08,26,11.40
2022,10,03,08,27,11.50
2022,10,03,08,28,11.50
2022,10,03,08,29,11.50
2022,10,03,08,30,11.50
2022,10,03,08,31,11.50
2022,10,03,08,32,11.60
2022,10,03,08,33,11.60
2022,10,03,08,34,11.60
2022,10,03,08,35,11.60
2022,10,03,08,36,11.70
2022,10,03,08,37,11.80
2022,10,03,08,38,11.80
2022,10,03,08,39,11.90
2022,10,03,08,40,12.00
2022,10,03,08,41,12.10
2022,10,03,08,42,12.20
2022,10,03,08,43,12.30
2022,10,03,08,44,12.30
2022,10,03,08,45,12.40
2022,10,03,08,46,12.50
2022,10,03,08,47,12.60
2022,10,03,08,48,12.70
2022,10,03,08,49,12.80
2022,10,03,08,50,12.80
2022,10,03,08,51,12.90
2022,10,03,08,52,13.00
2022,10,03,08,53,13.20
2022,10,03,08,54,13.40
2022,10,03,08,55,13.50
2022,10,03,08,56,13.60
2022,10,03,08,57,13.70
2022,10,03,08,58,13.70
2022,10,03,08,59,13.80
2022,10,03,09,00,13.80
2022,10,03,09,01,13.90
2022,10,03,09,02,13.90
2022,10,03,09,03,13.90
2022,10,03,09,04,14.00
2022,10,03,09,05,14.00
2022,10,03,09,06,14.10
2022,10,03,09,07,14.10
2022,10,03,09,08,14.20
2022,10,03,09,09,14.20
2022,10,03,09,10,14.20
2022,10,03,09,11,14.30
2022,10,03,09,12,14.30
2022,10,03,09,13,14.30
2022,10,03,09,14,14.40
2022,10,03,09,15,14.40
2022,10,03,09,16,14.50
2022,10,03,09,17,14.60
2022,10,03,09,18,14.70
2022,10,03,09,19,14.80
2022,10,03,09,20,15.00
2022,10,03,09,21,15.10
2022,10,03,09,22,15.20
2022,10,03,09,23,15.30
2022,10,03,09,24,15.30
2022,10,03,09,25,15.40
2022,10,03,09,26,15.50
2022,10,03,09,27,15.60
2022,10,03,09,28,15.60
2022,10,03,09,29,15.70
2022,10,03,09,30,15.80
2022,10,03,09,31,16.00
2022,10,03,09,32,16.10
2022,10,03,09,33,16.20
2022,10,03,09,34,16.30
2022,10,03,09,35,16.40
2022,10,03,09,36,16.50
2022,10,03,09,37,16.50
2022,10,03,09,38,16.60
2022,10,03,09,39,16.70
2022,10,03,09,40,16.80
2022,10,03,09,41,16.90
2022,10,03,09,42,17.10
2022,10,03,09,43,17.20
2022,10,03,09,44,17.30
2022,10,03,09,45,17.30
2022,10,03,09,46,17.30
2022,10,03,09,47,17.20
2022,10,03,09,48,17.10
2022,10,03,09,49,17.10
2022,10,03,09,50,17.10
2022,10,03,09,51,17.00
2022,10,03,09,52,17.00
2022,10,03,09,53,17.00
2022,10,03,09,54,17.00
2022,10,03,09,55,17.00
2022,10,03,09,56,16.90
2022,10,03,09,57,16.90
2022,10,03,09,58,16.90
2022,10,03,09,59,16.90
2022,10,03,10,00,17.00
2022,10,03,10,01,17.10
2022,10,03,10,02,17.20
2022,10,03,10,03,17.30
2022,10,03,10,04,17.40
2022,10,03,10,05,17.50
2022,10,03,10,06,17.50
2022,10,03,10,07,17.60
2022,10,03,10,08,17.60
2022,10,03,10,09,17.70
2022,10,03,10,10,17.70
2022,10,03,10,11,17.80
2022,10,03,10,12,17.80
2022,10,03,10,13,17.80
2022,10,03,10,14,17.90
2022,10,03,10,15,17.90
2022,10,03,10,16,17.90
2022,10,03,10,17,18.00
2022,10,03,10,18,18.10
2022,10,03,10,19,18.20
2022,10,03,10,20,18.30
2022,10,03,10,21,18.40
2022,10,03,10,22,18.50
2022,10,03,10,23,18.50
2022,10,03,10,24,18.60
2022,10,03,10,25,18.60
2022,10,03,10,26,18.50
2022,10,03,10,27,18.50
2022,10,03,10,28,18.40
2022,10,03,10,29,18.30
2022,10,03,10,30,18.20
2022,10,03,10,31,18.10
2022,10,03,10,32,18.10
2022,10,03,10,33,18.10
2022,10,03,10,34,18.00
2022,10,03,10,35,18.00
2022,10,03,10,36,18.00
2022,10,03,10,37,18.00
2022,10,03,10,38,18.00
2022,10,03,10,39,18.10
2022,10,03,10,40,18.10
2022,10,03,10,41,18.10
2022,10,03,10,42,18.20
2022,10,03,10,43,18.20
2022,10,03,10,44,18.30
2022,10,03,10,45,18.40
2022,10,03,10,46,18.40
2022,10,03,10,47,18.40
2022,10,03,10,48,18.50
2022,10,03,10,49,18.50
2022,10,03,10,50,18.50
2022,10,03,10,51,18.60
2022,10,03,10,52,18.60
2022,10,03,10,53,18.60
2022,10,03,10,54,18.50
2022,10,03,10,55,18.50
2022,10,03,10,56,18.40
2022,10,03,10,57,18.40
2022,10,03,10,58,18.30
2022,10,03,10,59,18.30
2022,10,03,11,00,18.30
2022,10,03,11,01,18.30
2022,10,03,11,02,18.30
2022,10,03,11,03,18.30
2022,10,03,11,04,18.20
2022,10,03,11,05,18.20
2022,10,03,11,06,18.30
2022,10,03,11,07,18.30
2022,10,03,11,08,18.30
2022,10,03,11,09,18.40
2022,10,03,11,10,18.40
2022,10,03,11,11,18.40
2022,10,03,11,12,18.50
2022,10,03,11,13,18.50
2022,10,03,11,14,18.60
2022,10,03,11,15,18.60
2022,10,03,11,16,18.70
2022,10,03,11,17,18.80
2022,10,03,11,18,18.80
2022,10,03,11,19,18.90
2022,10,03,11,20,19.00
2022,10,03,11,21,19.10
2022,10,03,11,22,19.10
2022,10,03,11,23,19.10
2022,10,03,11,24,19.20
2022,10,03,11,25,19.20
2022,10,03,11,26,19.20
2022,10,03,11,27,19.20
2022,10,03,11,28,19.30
2022,10,03,11,29,19.40
2022,10,03,11,30,19.40
2022,10,03,11,31,19.40
2022,10,03,11,32,19.50
2022,10,03,11,33,19.50
2022,10,03,11,34,19.60
2022,10,03,11,35,19.70
2022,10,03,11,36,19.80
2022,10,03,11,37,19.80
2022,10,03,11,38,19.90
2022,10,03,11,39,19.90
2022,10,03,11,40,19.90
2022,10,03,11,41,19.90
2022,10,03,11,42,19.90
2022,10,03,11,43,20.00
2022,10,03,11,44,20.00
2022,10,03,11,45,20.00
2022,10,03,11,46,20.00
2022,10,03,11,47,20.00
2022,10,03,11,48,20.00
2022,10,03,11,49,20.10
2022,10,03,11,50,20.10
2022,10,03,11,51,20.10
2022,10,03,11,52,20.10
2022,10,03,11,53,20.10
2022,10,03,11,54,20.10
2022,10,03,11,55,20.20
2022,10,03,11,56,20.20
2022,10,03,11,57,20.20
2022,10,03,11,58,20.30
2022,10,03,11,59,20.30
2022,10,03,12,00,20.30
2022,10,03,12,01,20.30
2022,10,03,12,02,20.40
2022,10,03,12,03,20.40
2022,10,03,12,04,20.50
2022,10,03,12,05,20.50
2022,10,03,12,06,20.50
2022,10,03,12,07,20.50
2022,10,03,12,08,20.50
2022,10,03,12,09,20.60
2022,10,03,12,10,20.60
2022,10,03,12,11,20.60
2022,10,03,12,12,20.70
2022,10,03,12,13,20.80
2022,10,03,12,14,20.90
2022,10,03,12,15,20.90
2022,10,03,12,16,21.00
2022,10,03,12,17,21.10
2022,10,03,12,18,21.20
2022,10,03,12,19,21.30
2022,10,03,12,20,21.30
2022,10,03,12,21,21.30
2022,10,03,12,22,21.40
2022,10,03,12,23,21.40
2022,10,03,12,24,21.50
2022,10,03,12,25,21.60
2022,10,03,12,26,21.60
2022,10,03,12,27,21.60
2022,10,03,12,28,21.60
2022,10,03,12,29,21.60
2022,10,03,12,30,21.70
2022,10,03,12,31,21.70
2022,10,03,12,32,21.70
2022,10,03,12,33,21.70
2022,10,03,12,34,21.70
2022,10,03,12,35,21.70
2022,10,03,12,36,21.70
2022,10,03,12,37,21.70
2022,10,03,12,38,21.70
2022,10,03,12,39,21.80
2022,10,03,12,40,21.80
2022,10,03,12,41,21.80
2022,10,03,12,42,21.80
2022,10,03,12,43,21.90
2022,10,03,12,44,22.00
2022,10,03,12,45,22.10
2022,10,03,12,46,22.10
2022,10,03,12,47,22.10
2022,10,03,12,48,22.20
2022,10,03,12,49,22.20
2022,10,03,12,50,22.20
2022,10,03,12,51,22.20
2022,10,03,12,52,22.20
2022,10,03,12,53,22.30
2022,10,03,12,54,22.20
2022,10,03,12,55,22.20
2022,10,03,12,56,22.30
2022,10,03,12,57,22.30
2022,10,03,12,58,22.30
2022,10,03,12,59,22.40
2022,10,03,13,00,22.40
2022,10,03,13,01,22.40
2022,10,03,13,02,22.40
2022,10,03,13,03,22.40
2022,10,03,13,04,22.50
2022,10,03,13,05,22.50
2022,10,03,13,06,22.50
2022,10,03,13,07,22.50
2022,10,03,13,08,22.50
2022,10,03,13,09,22.50
2022,10,03,13,10,22.50
2022,10,03,13,11,22.40
2022,10,03,13,12,22.50
2022,10,03,13,13,22.50
2022,10,03,13,14,22.50
2022,10,03,13,15,22.50
2022,10,03,13,16,22.60
2022,10,03,13,17,22.60
2022,10,03,13,18,22.70
2022,10,03,13,19,22.70
2022,10,03,13,20,22.70
2022,10,03,13,21,22.70
2022,10,03,13,22,22.70
2022,10,03,13,23,22.70
2022,10,03,13,24,22.80
2022,10,03,13,25,22.80
2022,10,03,13,26,22.80
2022,10,03,13,27,22.80
2022,10,03,13,28,22.80
2022,10,03,13,29,22.90
2022,10,03,13,30,22.90
2022,10,03,13,31,22.90
2022,10,03,13,32,22.90
2022,10,03,13,33,22.90
2022,10,03,13,34,22.90
2022,10,03,13,35,22.90
2022,10,03,13,36,22.90
2022,10,03,13,37,23.00
2022,10,03,13,38,23.00
2022,10,03,13,39,23.10
2022,10,03,13,40,23.10
2022,10,03,13,41,23.10
2022,10,03,13,42,23.10
2022,10,03,13,43,23.10
2022,10,03,13,44,23.10
2022,10,03,13,45,23.20
2022,10,03,13,46,23.20
2022,10,03,13,47,23.20
2022,10,03,13,48,23.30
2022,10,03,13,49,23.30
2022,10,03,13,50,23.30
2022,10,03,13,51,23.30
2022,10,03,13,52,23.30
2022,10,03,13,53,23.30
2022,10,03,13,54,23.30
2022,10,03,13,55,23.30
2022,10,03,13,56,23.30
2022,10,03,13,57,23.30
2022,10,03,13,58,23.30
2022,10,03,13,59,23.30
2022,10,03,14,00,23.40
2022,10,03,14,01,23.40
2022,10,03,14,02,23.40
2022,10,03,14,03,23.50
2022,10,03,14,04,23.50
2022,10,03,14,05,23.50
2022,10,03,14,06,23.50
2022,10,03,14,07,23.50
2022,10,03,14,08,23.50
2022,10,03,14,09,23.50
2022,10,03,14,10,23.50
2022,10,03,14,11,23.60
2022,10,03,14,12,23.60
2022,10,03,14,13,23.60
2022,10,03,14,14,23.70
2022,10,03,14,15,23.70
2022,10,03,14,16,23.70
2022,10,03,14,17,23.60
2022,10,03,14,18,23.60
2022,10,03,14,19,23.60
2022,10,03,14,20,23.60
2022,10,03,14,21,23.60
2022,10,03,14,22,23.60
2022,10,03,14,23,23.70
2022,10,03,14,24,23.70
2022,10,03,14,25,23.70
2022,10,03,14,26,23.70
2022,10,03,14,27,23.80
2022,10,03,14,28,23.80
2022,10,03,14,29,23.80
2022,10,03,14,30,23.80
2022,10,03,14,31,23.70
2022,10,03,14,32,23.70
2022,10,03,14,33,23.70
2022,10,03,14,34,23.70
2022,10,03,14,35,23.70
2022,10,03,14,36,23.70
2022,10,03,14,37,23.70
2022,10,03,14,38,23.70
2022,10,03,14,39,23.70
2022,10,03,14,40,23.70
2022,10,03,14,41,23.70
2022,10,03,14,42,23.70
2022,10,03,14,43,23.80
2022,10,03,14,44,23.80
2022,10,03,14,45,23.80
2022,10,03,14,46,23.80
2022,10,03,14,47,23.90
2022,10,03,14,48,23.90
2022,10,03,14,49,24.00
2022,10,03,14,50,24.00
2022,10,03,14,51,24.10
2022,10,03,14,52,24.10
2022,10,03,14,53,24.10
2022,10,03,14,54,24.20
2022,10,03,14,55,24.20
2022,10,03,14,56,24.20
2022,10,03,14,57,24.20
2022,10,03,14,58,24.20
2022,10,03,14,59,24.20
2022,10,03,15,00,24.30
2022,10,03,15,01,24.30
2022,10,03,15,02,24.20
2022,10,03,15,03,24.30
2022,10,03,15,04,24.30
2022,10,03,15,05,24.30
2022,10,03,15,06,24.30
2022,10,03,15,07,24.20
2022,10,03,15,08,24.20
2022,10,03,15,09,24.20
2022,10,03,15,10,24.20
2022,10,03,15,11,24.10
2022,10,03,15,12,24.10
2022,10,03,15,13,24.10
2022,10,03,15,14,24.10
2022,10,03,15,15,24.10
2022,10,03,15,16,24.10
2022,10,03,15,17,24.10
2022,10,03,15,18,24.10
2022,10,03,15,19,24.10
2022,10,03,15,20,24.10
2022,10,03,15,21,24.10
2022,10,03,15,22,24.20
2022,10,03,15,23,24.30
2022,10,03,15,24,24.30
2022,10,03,15,25,24.30
2022,10,03,15,26,24.30
2022,10,03,15,27,24.20
2022,10,03,15,28,24.20
2022,10,03,15,29,24.20
2022,10,03,15,30,24.20
2022,10,03,15,31,24.20
2022,10,03,15,32,24.10
2022,10,03,15,33,24.10
2022,10,03,15,34,24.10
2022,10,03,15,35,24.10
2022,10,03,15,36,24.10
2022,10,03,15,37,24.10
2022,10,03,15,38,24.10
2022,10,03,15,39,24.10
2022,10,03,15,40,24.10
2022,10,03,15,41,24.00
2022,10,03,15,42,24.00
2022,10,03,15,43,24.00
2022,10,03,15,44,24.00
2022,10,03,15,45,24.00
2022,10,03,15,46,24.00
2022,10,03,15,47,24.10
2022,10,03,15,48,24.10
2022,10,03,15,49,24.10
2022,10,03,15,50,24.10
2022,10,03,15,51,24.00
2022,10,03,15,52,24.00
2022,10,03,15,53,24.00
2022,10,03,15,54,24.00
2022,10,03,15,55,23.90
2022,10,03,15,56,23.90
2022,10,03,15,57,23.80
2022,10,03,15,58,23.80
2022,10,03,15,59,23.80
2022,10,03,16,00,23.90
2022,10,03,16,01,24.00
2022,10,03,16,02,24.00
2022,10,03,16,03,24.00
2022,10,03,16,04,24.10
2022,10,03,16,05,24.20
2022,10,03,16,06,24.20
2022,10,03,16,07,24.20
2022,10,03,16,08,24.20
2022,10,03,16,09,24.20
2022,10,03,16,10,24.20
2022,10,03,16,11,24.20
2022,10,03,16,12,24.30
2022,10,03,16,13,24.30
2022,10,03,16,14,24.40
2022,10,03,16,15,24.50
2022,10,03,16,16,24.60
2022,10,03,16,17,24.60
2022,10,03,16,18,24.70
2022,10,03,16,19,24.70
2022,10,03,16,20,24.70
2022,10,03,16,21,24.70
2022,10,03,16,22,24.80
2022,10,03,16,23,24.80
2022,10,03,16,24,24.80
2022,10,03,16,25,24.80
2022,10,03,16,26,24.80
2022,10,03,16,27,24.80
2022,10,03,16,28,24.80
2022,10,03,16,29,24.80
2022,10,03,16,30,24.80
2022,10,03,16,31,24.80
2022,10,03,16,32,24.90
2022,10,03,16,33,24.90
2022,10,03,16,34,25.00
2022,10,03,16,35,25.10
2022,10,03,16,36,25.10
2022,10,03,16,37,25.10
2022,10,03,16,38,24.90
2022,10,03,16,39,24.80
2022,10,03,16,40,24.70
2022,10,03,16,41,24.70
2022,10,03,16,42,24.60
2022,10,03,16,43,24.60
2022,10,03,16,44,24.50
2022,10,03,16,45,24.40
2022,10,03,16,46,24.30
2022,10,03,16,47,24.20
2022,10,03,16,48,24.10
2022,10,03,16,49,24.00
2022,10,03,16,50,23.90
2022,10,03,16,51,23.80
2022,10,03,16,52,23.70
2022,10,03,16,53,23.60
2022,10,03,16,54,23.50
2022,10,03,16,55,23.30
2022,10,03,16,56,23.20
2022,10,03,16,57,23.20
2022,10,03,16,58,23.10
2022,10,03,16,59,23.00
2022,10,03,17,00,23.00
2022,10,03,17,01,22.90
2022,10,03,17,02,22.80
2022,10,03,17,03,22.80
2022,10,03,17,04,22.80
2022,10,03,17,05,22.80
2022,10,03,17,06,22.70
2022,10,03,17,07,22.70
2022,10,03,17,08,22.70
2022,10,03,17,09,22.70
2022,10,03,17,10,22.70
2022,10,03,17,11,22.70
2022,10,03,17,12,22.60
2022,10,03,17,13,22.60
2022,10,03,17,14,22.60
2022,10,03,17,15,22.60
2022,10,03,17,16,22.60
2022,10,03,17,17,22.60
2022,10,03,17,18,22.50
2022,10,03,17,19,22.50